Tracking 19644 objects as of 25-Apr-2019
HD Live streaming from Space Station
objects crossing your sky now

CZ-4 DEB

Track CZ-4 DEB now!
10-day predictions


NORAD ID: 26310
Int'l Code: 1999-057GT
Perigee: 691.5 km
Apogee: 830.3 km
Inclination: 98.7 °
Period: 99.9 minutes
Semi major axis: 7131 km
RCS: 0.043 m2 (small)
Launch date: October 14, 1999
Source: People's Republic of China (PRC)
Launch site: Taiyaun Space Center, China (TSC)

Note: This is SATELLITE DEBRIS
aabbcc
Your satellite tracking list
Your tracking list is empty




NASA's NSSDC Master Catalog

Two Line Element Set (TLE):
1 26310U 99057GT  19113.96659441 +.00000150 +00000-0 +58392-4 0  9998
2 26310 098.6913 098.5926 0097339 296.2127 128.0753 14.41426512000476
Source of the keplerian elements: AFSPC